Regional Weather Roundup
Issued by NWS

Home | Current Version | Previous Version | Text Only | Print | Product List | Glossary Off
Versions: 1 2 3 4 5 6 7 8 9 10 11 12 13 14 15 16 17 18 19 20 21 22 23 24 25 26 27

000
ASUS45 KCYS 212110
RWRWY

WYOMING REGIONAL WEATHER ROUNDUP
NATIONAL WEATHER SERVICE CHEYENNE WY
300 PM MDT MON MAY 21 2018

NOTE:  "FAIR" INDICATES FEW OR NO CLOUDS BELOW 12,000 FEET
WITH NO SIGNIFICANT WEATHER AND/OR OBSTRUCTIONS TO VISIBILITY.

WYZ001-212200-
YELLOWSTONE NATIONAL PARK

CITY           SKY/WX    TMP DP  RH WIND       PRES   REMARKS
LK YELLOWSTONE   N/A     55  38  52 VRB6      30.10F
W YELLOWSTONE  NOT AVBL

$$
WYZ002>013-054>058-071-098>099-212200-
NORTHERN WYOMING

CITY           SKY/WX    TMP DP  RH WIND       PRES   REMARKS
JACKSON        FAIR      66  38  35 W12       30.01F
CODY           LGT RAIN  59  48  67 CALM      29.99S
GREYBULL       FAIR      79  43  27 S7        29.86F
WORLAND        FAIR      74  51  44 E7        29.89F
SHERIDAN       FAIR      73  50  44 W3        29.91F
BUFFALO        FAIR      70  46  42 NW8       29.97S
GILLETTE       FAIR      76  44  32 VRB3      29.92S
NEWCASTLE      FAIR      72  43  35 SE3G21    29.95S

$$
WYZ014>020-022>026-101>103-212200-
CENTRAL WYOMING

CITY           SKY/WX    TMP DP  RH WIND       PRES   REMARKS
BIG PINEY      CLOUDY    63  28  26 S16G22    30.04F
PINEDALE       CLOUDY    61  34  36 N16G24    30.06S
DUBOIS         CLOUDY    54  34  47 SW22G29   30.06S
LANDER         FAIR      71  50  47 N8        29.93F
RIVERTON       FAIR      72  43  35 NE6       29.94F
CASPER         FAIR      76  39  26 MISG      29.95F
DOUGLAS        FAIR      72  49  44 S6        29.97S

$$
WYZ021-027>030-104>119-212200-
SOUTHERN WYOMING

CITY           SKY/WX    TMP DP  RH WIND       PRES   REMARKS
EVANSTON       CLOUDY    61  34  36 VRB6      30.03F
KEMMERER       LGT RAIN  59  32  36 SW18      30.07R
FORT BRIDGER   MOCLDY    66  31  27 SW6G20    30.06S
ROCK SPRINGS   LGT RAIN  60  35  39 S13G18    30.05R
DIXON          FAIR      75  22  13 S10G18    30.03F
RAWLINS        FAIR      75  23  14 SW14G21   30.03F
SARATOGA       MOCLDY    68  30  24 E12G17    30.06F
LARAMIE        FAIR      67  31  26 NW7       30.05F
CHEYENNE       TSTM      62  44  51 CALM      30.03F
TORRINGTON     FAIR      74  54  49 SE9       29.93F
PINE BLUFFS    FAIR      70  46  43 NE6       29.99F

$$




USA.gov is the U.S. government's official web portal to all federal, state and local government web resources and services.